This is the latest recevied weather packets stored in our database for station/object DL6MM-4. If no packets are shown the sender has not sent any weather packets the latest 10 day(s).
| Time | Temp. | Humidity | Pressure | Rain* | Wind** | Luminosity | Snow |
|---|---|---|---|---|---|---|---|
| 1777843755 | 17.22° C | 62% | 1010.5 hPa | 0 mm | - | - | - |
| 1777843155 | 17.78° C | 61% | 1010.4 hPa | 0 mm | - | - | - |
| 1777842555 | 17.78° C | 60% | 1010.4 hPa | 0 mm | - | - | - |
| 1777841955 | 17.78° C | 60% | 1010.2 hPa | 0 mm | - | - | - |
| 1777841355 | 17.78° C | 58% | 1010.2 hPa | 0 mm | - | - | - |
| 1777840755 | 18.33° C | 58% | 1010.2 hPa | 0 mm | - | - | - |
| 1777840155 | 18.33° C | 57% | 1010.2 hPa | 0 mm | - | - | - |
| 1777839555 | 18.33° C | 57% | 1010.2 hPa | 0 mm | - | - | - |
| 1777838955 | 18.33° C | 56% | 1010.2 hPa | 0 mm | - | - | - |
| 1777838355 | 18.33° C | 56% | 1010.4 hPa | 0 mm | - | - | - |
| 1777837755 | 18.33° C | 55% | 1010.2 hPa | 0 mm | - | - | - |
| 1777837155 | 18.33° C | 55% | 1010.2 hPa | 0 mm | - | - | - |
| 1777836555 | 18.33° C | 55% | 1010.1 hPa | 0 mm | - | - | - |
| 1777835955 | 18.89° C | 53% | 1010 hPa | 0 mm | - | - | - |
| 1777835355 | 18.89° C | 51% | 1009.7 hPa | 0 mm | - | - | - |
| 1777834755 | 19.44° C | 50% | 1009.7 hPa | 0 mm | - | - | - |
| 1777834155 | 19.44° C | 49% | 1009.5 hPa | 0 mm | - | - | - |
| 1777833555 | 19.44° C | 48% | 1009.4 hPa | 0 mm | - | - | - |
| 1777832955 | 19.44° C | 49% | 1009.2 hPa | 0 mm | - | - | - |
| 1777832355 | 20° C | 48% | 1009.2 hPa | 0 mm | - | - | - |
| 1777831755 | 20° C | 47% | 1009 hPa | 0 mm | - | - | - |
| 1777831155 | 20.56° C | 46% | 1008.9 hPa | 0 mm | - | - | - |
| 1777830555 | 20.56° C | 43% | 1008.9 hPa | 0 mm | - | - | - |
| 1777829955 | 21.11° C | 39% | 1008.9 hPa | 0 mm | - | - | - |
| 1777829355 | 21.11° C | 39% | 1008.7 hPa | 0 mm | - | - | - |
* Rain latest hour (hover to see other rain measurements)
** Current wind speed in m/s (hover to see current wind gust speed)